Wind_Speed
11 13 15 12 17 18 16 15 14 12 13 14 19 21 20 19 19 17 17 17 17 18 18 17 18 19 23 26 31 29 30 28 27 27 27 27 27 28 26 27 26 26 25 22
13 16 12 15 15 17 15 16 17 16 17 17 18 22 21 21 22 22 20 19 18 18 18 19 22 22 26 29 31 34 34 34 32 31 32 33 33 33 31 30 29 30 29 24
17 10 16 14 15 16 17 18 17 16 12 16 20 25 25 24 23 21 21 21 19 19 21 22 25 24 27 30 33 35 38 40 41 34 35 38 40 39 36 34 31 30 31 27
16 14 15 8 10 12 16 15 17 16 15 16 7 19 10 8 12 16 17 17 17 16 22 20 22 19 18 22 28 31 39 44 44 38 39 40 41 39 36 35 33 32 30 27
5 9 11 12 13 11 9 10 11 14 17 18 21 17 19 16 15 16 15 17 14 16 18 18 21 23 24 27 26 29 33 38 35 34 36 38 39 39 37 35 33 32 28 28
16 11 10 9 9 12 8 8 11 13 16 19 23 20 15 18 15 9 10 17 13 12 12 18 23 23 26 28 28 29 30 31 31 32 33 33 32 34 36 33 33 30 29 26
16 18 10 10 8 8 11 8 12 12 11 13 6 7 18 7 8 9 11 11 18 20 21 21 15 18 20 20 20 20 22 25 26 28 27 28 28 34 33 32 34 31 30 27
15 14 18 13 15 8 12 14 12 10 11 13 6 7 12 10 12 15 12 17 20 20 21 15 15 10 10 15 19 19 21 23 25 28 29 29 30 33 33 33 31 32 33 31
12 16 10 11 11 11 11 15 16 20 23 23 28 28 23 21 16 16 17 16 19 18 15 16 13 14 21 20 22 24 26 25 26 27 27 29 31 32 32 31 31 33 33 38
14 19 14 14 14 17 20 14 11 14 10 17 15 17 15 9 13 15 17 17 18 20 19 15 16 19 19 18 21 24 25 26 24 27 29 30 31 31 31 32 32 35 37 39
19 18 20 15 16 20 19 20 23 26 26 16 17 23 11 5 10 10 14 15 17 16 16 19 21 25 29 30 29 27 27 29 29 27 31 34 34 32 34 34 35 38 39 41
22 14 25 30 23 22 24 28 26 28 20 31 31 27 26 25 24 21 23 26 32 24 23 20 17 33 38 38 35 33 31 32 36 32 32 36 37 35 36 38 39 40 40 43
18 16 23 28 27 29 28 31 31 34 37 42 28 24 12 12 18 20 25 25 24 27 29 35 42 34 26 39 36 36 36 33 36 38 36 38 39 39 39 41 42 42 42 44
26 26 30 27 27 26 29 27 27 30 39 36 43 42 37 34 32 33 31 28 28 30 30 32 32 30 33 35 33 34 31 35 38 43 41 40 41 43 43 43 44 43 43 46
33 35 33 38 38 38 41 42 41 43 42 43 39 46 37 33 33 32 32 32 33 34 34 39 36 33 33 33 31 31 34 37 38 44 44 46 45 46 47 47 47 47 42 46
33 39 33 43 37 39 48 51 47 48 49 56 55 66 44 42 37 39 37 35 36 36 36 37 38 33 32 32 35 33 33 36 35 37 43 48 49 48 48 48 47 42 44 53
30 33 28 39 29 34 50 45 53 58 55 51 61 68 36 38 37 36 35 31 31 30 32 34 32 35 35 39 37 36 35 33 34 35 42 46 46 47 48 48 41 40 47 40
36 30 32 25 16 17 42 28 23 31 40 45 57 57 41 43 39 37 34 36 36 33 30 29 33 36 36 37 35 32 34 36 35 37 40 44 43 43 45 41 40 42 40 41
47 42 28 19 24 43 48 23 20 27 40 32 36 39 37 32 32 31 28 28 28 27 30 36 35 32 35 32 32 34 35 37 36 37 38 39 39 39 39 40 40 41 42 42
53 54 45 18 10 15 34 19 11 25 69 35 39 40 33 26 30 26 24 27 28 28 28 27 31 34 33 35 36 35 33 33 32 34 34 36 37 37 38 39 40 41 42 44
28 42 50 46 28 41 40 25 16 26 39 12 16 21 21 22 25 25 31 29 34 32 31 33 33 33 36 35 37 37 36 34 32 33 35 36 35 36 37 38 40 41 43 40
30 29 36 42 29 35 40 31 39 48 34 30 32 25 27 29 27 22 33 33 35 34 36 37 36 37 37 40 37 37 36 34 33 32 33 34 35 35 36 39 40 43 39 39
44 40 34 40 51 60 45 23 27 31 40 40 37 34 28 32 27 24 37 38 37 36 38 40 40 40 41 39 36 34 33 33 32 33 34 36 36 37 38 39 42 38 37 35
38 37 47 46 55 54 46 41 42 42 47 41 32 36 39 42 35 32 39 44 41 40 42 42 43 42 42 37 35 34 33 33 33 35 35 35 37 37 39 39 38 38 33 28
27 36 44 48 53 46 44 36 48 45 38 33 44 45 41 38 40 45 41 40 42 43 46 47 43 36 35 34 34 34 33 35 36 35 36 38 41 40 35 36 35 32 27 26
23 27 27 27 27 27 35 46 47 48 51 43 43 47 48 40 38 39 46 46 38 37 35 34 35 37 36 34 36 36 37 37 39 40 37 39 33 32 35 33 29 26 24 22
Wind_Direction
267 259 247 253 244 246 267 258 263 250 244 262 259 262 259 253 248 247 234 233 234 236 239 240 246 233 232 238 249 252 253 253 252 258 262 260 260 259 260 262 265 270 273 265
250 267 261 249 237 241 249 256 257 260 255 258 266 266 261 254 246 244 243 244 246 249 253 250 235 237 244 248 251 254 255 256 256 257 261 263 262 260 260 264 267 272 277 276
248 264 261 244 234 238 248 251 256 262 259 270 274 278 263 253 247 242 240 240 238 242 235 240 248 261 254 246 249 252 258 259 259 256 260 258 258 257 259 267 270 271 276 275
254 244 261 237 228 235 255 258 253 253 262 268 204 279 273 234 234 231 235 239 234 233 252 252 253 253 251 249 246 249 251 256 261 258 256 259 260 261 264 264 269 267 273 277
247 246 236 241 243 238 258 241 250 250 258 270 265 259 269 245 236 233 243 223 216 231 255 251 247 250 254 256 260 264 258 256 265 261 255 256 255 255 259 259 263 270 275 277
237 248 233 235 242 223 230 254 256 255 257 258 257 251 264 240 212 213 220 220 229 248 251 272 266 266 264 264 264 261 256 256 256 256 255 252 246 250 251 255 261 269 271 271
242 237 241 224 216 229 227 233 257 224 222 252 224 237 243 255 262 232 247 225 248 258 253 272 260 263 264 263 262 259 253 253 250 247 244 245 242 243 246 254 260 263 267 269
225 208 211 237 216 240 236 239 254 290 294 292 174 239 245 261 234 235 231 241 248 262 262 247 272 259 274 274 264 262 265 262 255 247 240 239 235 242 251 256 260 266 264 269
246 252 209 223 224 225 234 236 263 271 270 272 267 272 268 257 255 260 257 246 248 237 270 266 242 260 296 275 262 266 268 266 262 254 242 240 240 246 251 257 264 262 264 268
246 254 245 243 228 238 237 255 256 239 260 266 254 253 265 234 245 262 250 246 228 228 279 232 273 278 287 280 274 268 262 265 260 255 250 246 245 248 254 263 262 261 263 267
228 241 251 223 234 249 236 243 250 266 267 273 276 270 276 286 278 249 247 243 237 246 259 254 296 293 301 291 284 275 266 268 264 261 259 253 251 252 257 259 262 263 266 273
223 246 245 247 258 261 251 256 257 250 264 260 263 262 266 269 265 265 250 259 271 260 255 252 267 293 294 305 284 276 268 262 263 260 264 258 256 258 260 262 262 264 271 279
218 238 256 257 258 256 257 256 257 259 265 266 266 260 265 241 285 252 259 264 257 263 264 259 281 280 272 294 287 276 271 259 256 259 260 262 260 261 261 263 265 268 272 276
228 242 247 254 257 269 268 258 257 256 257 265 258 273 266 266 267 268 272 267 267 256 267 271 271 280 282 289 277 279 274 268 257 256 258 263 263 264 264 265 266 268 273 277
238 247 252 260 263 265 265 264 260 259 256 254 265 267 270 271 269 269 269 269 267 267 268 268 276 278 271 272 276 276 275 272 268 260 259 262 263 264 265 268 269 266 273 277
240 253 259 263 262 265 266 259 257 257 259 261 266 268 268 271 274 269 271 268 264 270 268 271 270 272 269 274 278 276 274 271 271 267 260 258 260 264 267 269 266 282 275 287
241 247 252 263 255 266 266 260 253 252 252 256 261 267 274 271 269 269 271 269 268 268 269 265 262 263 267 276 274 276 275 269 272 267 261 259 259 262 266 268 273 274 286 292
240 241 239 257 232 237 259 268 259 252 249 252 260 268 269 271 274 271 268 265 267 268 265 265 263 276 278 280 281 278 274 275 274 270 265 260 260 262 265 266 269 277 286 291
235 236 239 237 227 255 259 249 244 248 260 254 261 267 269 271 273 273 270 267 268 261 259 269 273 278 280 279 282 281 278 278 275 270 264 260 260 259 262 268 273 279 286 292
241 243 235 228 222 249 266 266 273 255 265 258 258 271 267 263 260 265 274 272 257 257 278 264 280 282 274 282 285 284 280 276 273 265 260 258 258 261 264 269 274 280 288 293
214 223 223 228 238 258 256 249 263 230 263 273 243 251 251 254 257 271 266 254 257 267 286 275 289 275 280 284 286 281 278 273 264 257 255 260 261 263 267 273 278 285 292 292
218 203 219 227 233 254 261 256 232 262 265 252 262 263 258 262 263 261 260 259 261 270 281 275 286 281 284 289 286 278 273 266 262 257 255 257 261 267 270 277 284 290 290 295
241 229 225 226 231 254 263 254 266 267 265 268 261 268 263 263 260 259 266 264 262 272 275 273 277 277 283 286 280 272 264 259 256 255 257 260 264 269 276 282 287 287 291 292
245 238 245 250 248 256 260 266 272 266 263 258 254 254 259 264 263 271 265 266 265 275 272 273 271 277 284 279 269 265 261 256 254 255 256 261 268 273 279 282 285 288 288 283
242 235 242 246 249 247 251 248 249 249 250 261 270 257 254 258 270 273 259 258 275 281 282 282 277 277 273 266 263 258 252 251 252 255 260 265 272 278 279 283 286 285 278 281
251 248 257 265 270 268 270 274 273 269 274 267 256 259 264 268 254 261 264 272 281 281 280 279 274 267 263 257 255 255 254 252 254 261 268 273 277 280 283 283 278 272 278 282
Height
3137 3136 3133 3133 3133 3133 3132 3131 3130 3129 3130 3129 3128 3127 3126 3126 3126 3125 3126 3127 3128 3129 3131 3132 3131 3131 3132 3131 3129 3131 3130 3131 3133 3133 3134 3135 3136 3136 3137 3136 3138 3138 3138 3137
3135 3130 3130 3130 3129 3129 3130 3129 3128 3128 3127 3126 3124 3121 3120 3120 3120 3121 3122 3123 3124 3125 3127 3127 3126 3125 3125 3126 3126 3125 3125 3124 3127 3128 3129 3130 3129 3129 3131 3130 3131 3132 3132 3130
3130 3128 3124 3124 3125 3125 3126 3126 3125 3125 3124 3122 3120 3115 3111 3111 3113 3115 3116 3117 3119 3119 3118 3118 3117 3117 3117 3119 3119 3120 3119 3117 3116 3122 3122 3121 3120 3121 3122 3123 3125 3125 3125 3124
3126 3124 3121 3121 3122 3123 3123 3122 3122 3122 3122 3118 3114 3111 3106 3107 3108 3109 3110 3112 3113 3112 3109 3111 3111 3111 3111 3111 3112 3112 3112 3109 3107 3113 3114 3112 3113 3114 3116 3117 3117 3116 3115 3114
3122 3118 3117 3117 3119 3120 3121 3118 3120 3120 3118 3116 3112 3110 3103 3102 3105 3106 3106 3106 3105 3103 3104 3105 3105 3105 3106 3105 3107 3106 3104 3102 3102 3104 3104 3105 3104 3107 3109 3111 3110 3109 3110 3109
3117 3115 3115 3116 3115 3115 3115 3116 3117 3117 3115 3110 3106 3106 3098 3097 3098 3101 3101 3100 3100 3100 3100 3100 3100 3100 3099 3098 3097 3096 3096 3095 3095 3096 3095 3096 3098 3101 3102 3103 3102 3101 3100 3101
3113 3112 3111 3111 3113 3113 3114 3114 3111 3109 3105 3101 3097 3100 3096 3095 3098 3100 3100 3098 3095 3095 3095 3095 3094 3093 3091 3090 3090 3090 3090 3090 3089 3089 3089 3091 3092 3092 3094 3094 3093 3092 3094 3095
3107 3107 3106 3106 3108 3110 3110 3111 3107 3101 3096 3092 3097 3095 3095 3092 3092 3093 3095 3094 3091 3090 3090 3091 3090 3088 3088 3088 3087 3086 3085 3085 3084 3083 3083 3084 3085 3086 3087 3087 3086 3088 3088 3088
3103 3104 3103 3104 3105 3108 3105 3106 3107 3103 3101 3098 3094 3090 3089 3089 3088 3089 3087 3086 3086 3086 3087 3086 3086 3085 3084 3083 3082 3082 3080 3079 3078 3077 3077 3078 3079 3080 3080 3080 3081 3080 3080 3078
3102 3102 3100 3100 3101 3101 3101 3104 3103 3099 3095 3088 3081 3080 3080 3082 3083 3084 3083 3082 3081 3081 3080 3081 3081 3079 3078 3078 3077 3075 3074 3074 3073 3073 3072 3072 3073 3073 3073 3073 3074 3072 3070 3069
3097 3100 3099 3097 3095 3095 3096 3095 3097 3096 3091 3083 3079 3077 3078 3078 3079 3080 3081 3080 3080 3077 3076 3073 3072 3072 3071 3071 3068 3066 3066 3065 3064 3064 3063 3062 3062 3063 3063 3064 3064 3063 3061 3060
3093 3093 3090 3089 3091 3090 3089 3088 3089 3086 3082 3077 3074 3067 3075 3076 3077 3075 3074 3073 3070 3070 3069 3067 3065 3063 3059 3059 3059 3057 3056 3056 3054 3054 3054 3053 3053 3055 3055 3054 3052 3051 3051 3049
3085 3086 3085 3083 3086 3084 3080 3081 3081 3079 3077 3067 3068 3059 3068 3068 3069 3069 3067 3066 3065 3061 3060 3060 3058 3055 3053 3049 3048 3047 3045 3046 3046 3045 3045 3045 3046 3046 3045 3045 3044 3043 3041 3038
3078 3079 3077 3073 3077 3077 3072 3071 3071 3071 3065 3062 3054 3055 3061 3063 3063 3061 3060 3060 3058 3058 3056 3056 3050 3048 3043 3043 3040 3036 3037 3036 3037 3035 3036 3036 3037 3037 3037 3037 3036 3034 3031 3030
3073 3068 3071 3067 3070 3069 3064 3061 3062 3058 3054 3051 3050 3044 3052 3053 3053 3053 3052 3051 3049 3049 3048 3046 3042 3039 3035 3033 3032 3031 3027 3026 3026 3026 3028 3026 3027 3027 3027 3028 3026 3022 3022 3021
3064 3059 3064 3053 3062 3060 3049 3046 3048 3046 3045 3037 3039 3019 3045 3042 3043 3040 3040 3039 3039 3038 3037 3036 3034 3031 3025 3024 3021 3020 3020 3017 3016 3016 3016 3015 3016 3017 3018 3016 3015 3011 3014 3012
3057 3057 3057 3039 3055 3054 3026 3032 3033 3029 3029 3032 3021 3001 3035 3030 3029 3029 3030 3029 3028 3026 3025 3022 3020 3017 3014 3012 3011 3011 3010 3011 3008 3007 3006 3007 3006 3007 3007 3005 3002 3004 3003 3002
3046 3047 3049 3040 3046 3037 3002 3015 3018 3018 3015 3016 3007 3011 3023 3016 3016 3016 3019 3017 3015 3015 3014 3013 3009 3007 3005 3003 3002 3001 2999 2999 3000 2999 2998 2998 2999 2999 2998 2996 2997 2996 2993 2991
3034 3037 3034 3034 3030 3012 2995 3008 3011 3011 2998 3006 3002 3001 3006 3010 3007 3005 3008 3006 3005 3004 3001 2998 2997 2997 2995 2993 2993 2992 2989 2987 2988 2988 2986 2986 2986 2987 2986 2990 2989 2987 2986 2983
3020 3022 3025 3022 3017 3001 2988 2998 3002 3006 2963 2997 2995 2990 2995 2999 2995 2997 2998 2997 2994 2993 2993 2990 2989 2987 2987 2985 2984 2981 2978 2976 2979 2979 2979 2979 2980 2979 2977 2976 2978 2975 2975 2971
3006 3008 3005 3008 3006 2981 2980 2992 2999 2997 2974 2984 2986 2986 2988 2987 2989 2989 2983 2982 2982 2982 2982 2981 2979 2977 2977 2975 2973 2970 2969 2969 2967 2968 2968 2971 2972 2972 2971 2970 2968 2965 2962 2961
2992 2993 2991 2997 2999 2975 2976 2981 2985 2973 2980 2983 2980 2978 2975 2976 2976 2978 2972 2972 2970 2972 2970 2972 2971 2968 2967 2964 2961 2959 2959 2959 2957 2959 2962 2962 2963 2963 2961 2961 2958 2956 2952 2948
2981 2974 2978 2977 2963 2962 2966 2970 2975 2975 2974 2975 2974 2972 2967 2965 2966 2967 2961 2961 2961 2958 2959 2959 2959 2960 2957 2953 2952 2950 2950 2950 2951 2951 2951 2952 2952 2951 2952 2951 2949 2945 2944 2943
2965 2971 2964 2966 2951 2959 2962 2965 2965 2965 2962 2960 2961 2955 2957 2954 2956 2954 2954 2949 2950 2950 2949 2948 2947 2946 2948 2945 2943 2943 2943 2944 2942 2943 2943 2942 2943 2942 2942 2940 2940 2939 2935 2931
2952 2954 2949 2949 2947 2945 2948 2949 2947 2947 2947 2944 2949 2946 2943 2942 2942 2942 2940 2942 2941 2938 2939 2938 2934 2934 2934 2935 2937 2938 2934 2936 2935 2934 2934 2934 2933 2933 2931 2931 2931 2931 2929 2922
2940 2943 2940 2936 2936 2935 2936 2938 2938 2936 2937 2934 2934 2934 2929 2929 2929 2930 2929 2927 2927 2928 2926 2926 2926 2924 2923 2922 2923 2926 2927 2928 2924 2927 2924 2924 2924 2923 2923 2921 2921 2922 2923 2918